Location: Flotzheim
(48.8375°N, 10.8136°E)
Time: 04:51:19
(UTC+00:00)

Cosmos 2058 Rocket - Pass Details

Date: 23 January 2021
Orbit: 611 x 638 km, 82.5° (Epoch: 26 February)

Event Time Altitude Azimuth Distance (km) Brightness Sun altitude
Rises 16:40:33 0° 354° (N) 2,946 6.4 -6.8°
Reaches altitude 10° 16:42:51 10° 359° (N) 2,035 5.5 -7.2°
Maximum altitude 16:47:16 52° 76° (ENE) 793 3.3 -7.9°
Drops below altitude 10° 16:51:40 10° 154° (SSE) 2,025 5.6 -8.5°
Sets 16:53:57 0° 159° (SSE) 2,929 6.5 -8.9°
